Flag for U.S.A. Weather past 2 weeks in Madison, Wisconsin, U.S.A.

Now
50 °F

Fog.


Feels Like: 48 °F
Forecast: 48 / 64 °F
Wind: 6 mph from Northwest

Location: Dane County Regional-Truax Field

Current Time: Oct 24, 2014 at 4:03:52 AM

Latest Report: Oct 24, 2014 at 2:53 AM


Visibility: 4 mi

Pressure: 30.05 "Hg

Humidity: 93%

Dew point: 48 °F

Location of MadisonLocation

Historic Weather in Madison — Graph

°F

Madison temperature yesterday

Maximum temperature yesterday: 52 °F (at 11:53 AM)
Minimum temperature yesterday: 38 °F (at 5:53 AM)
Average temperature yesterday: 47 °F

Past Weeks' High & Low Weather Summary

 TemperatureHumidityPressure
High66 °F (Oct 16, 3:53 PM)97% (Oct 13, 1:53 AM)30.39 "Hg (Oct 13, 1:53 AM)
Low27 °F (Oct 22, 5:53 AM)32% (Oct 9, 3:53 PM)29.45 "Hg (Oct 14, 2:53 AM)
Average49 °F75%29.99 "Hg
* Reported Oct 9 2:53 AM — Oct 24 2:53 AM, Madison, Weather by CustomWeather, © 2014

Note: Actual official high and low records may vary slightly from our data, if they occured in-between our weather recording intervals... More about our weather records

Advertising

Madison weather history for previous 24 hours

 ConditionsComfort  
Time TempWeatherWind HumidityBarometerVisibility
2:53 AM
Oct 24
50 °FFog.6 mph93%30.05 "Hg4 mi
1:53 AM50 °FFog.5 mph93%30.04 "Hg4 mi
12:53 AM51 °FFog.No wind89%30.04 "Hg5 mi
11:53 PM
Oct 23
51 °FFog.5 mph89%30.04 "Hg6 mi
10:53 PM51 °FFog.No wind92%30.05 "Hg4 mi
9:53 PM52 °FMostly cloudy.No wind89%30.06 "Hg7 mi
8:53 PM52 °FFog.No wind89%30.06 "Hg5 mi
7:53 PM52 °FOvercast.3 mph89%30.06 "Hg7 mi
6:53 PM52 °FOvercast.No wind89%30.05 "Hg10 mi
5:53 PM52 °FOvercast.No wind86%30.06 "Hg10 mi
4:53 PM52 °FOvercast.3 mph86%30.05 "Hg9 mi
4:03 PM52 °FMostly cloudy.No wind83%30.04 "Hg10 mi
3:53 PM52 °FMostly cloudy.3 mph83%30.06 "Hg10 mi
2:53 PM50 °FLight rain. Fog.3 mph89%30.06 "Hg6 mi
1:53 PM52 °FLight rain. Mostly cloudy.6 mph77%30.07 "Hg10 mi
12:53 PM51 °FLight rain. Overcast.7 mph77%30.10 "Hg8 mi
11:53 AM52 °FOvercast.10 mph64%30.12 "Hg10 mi
10:53 AM50 °FMostly cloudy.12 mph68%30.13 "Hg10 mi
9:53 AM48 °FMore clouds than sun.9 mph71%30.16 "Hg10 mi
8:53 AM45 °FPartly sunny.12 mph74%30.16 "Hg10 mi
7:53 AM41 °FPassing clouds.9 mph82%30.18 "Hg8 mi
6:53 AM40 °FPassing clouds.8 mph83%30.19 "Hg8 mi
5:53 AM38 °FPassing clouds.6 mph86%30.20 "Hg8 mi
4:53 AM39 °FClear.7 mph82%30.21 "Hg10 mi
Weather by CustomWeather, © 2014

See weather overviewHow to use our weather pages